Other Public Products
Issued by NWS Grand Forks, ND

Home | Current Version | Previous Version | Graphics & Text | Print | Product List | Glossary On
Versions: 1 2 3 4 5 6 7 8 9 10 11 12 13 14 15 16 17 18 19 20 21 22 23 24 25 26 27 28 29 30 31 32 33 34 35 36 37 38 39 40 41 42 43 44 45 46 47 48 49 50
000
FPUS83 KFGF 051631
OPUFGF
PRAIRIE TO PINES WEATHER ROUNDUP
NATIONAL WEATHER SERVICE EASTERN NORTH DAKOTA/GRAND FORKS ND
1100 AM CDT TUE MAY 05 2015

 **SATELLITE DATA USED TO AUGMENT SKY COVER AT AUTOMATED STATIONS**
 *****  WEATHER ACROSS EASTERN NORTH DAKOTA  *****

CITY           SKY/WX    TMP DP  RH WIND       PRES   REMARKS
GRAND FORKS    PTSUNNY   68  25  19 S18G24    30.14F
GRAND FORKS AF SUNNY     67  25  19 S21G26    30.13F
GRAND CITY NWS   N/A     68 N/A N/A SE20        N/A
BUXTON           N/A     70  31  24 CALM        N/A
DEVILS LAKE    MOSUNNY   66  34  30 S22       30.08F
FARGO          SUNNY     70  23  17 SE20      30.14F
WAHPETON ARPT  SUNNY     70  19  14 SE15G22   30.13F
$$

 *****  WEATHER ACROSS CENTRAL AND WESTERN NORTH DAKOTA  *****

CITY           SKY/WX    TMP DP  RH WIND       PRES   REMARKS
JAMESTOWN      SUNNY     68  29  23 S20G26    30.10F
BISMARCK       SUNNY     68  38  33 S20G30    30.04F
MINOT          CLOUDY    68  32  26 S18       29.98F
MINOT AFB      PTSUNNY   66  33  29 S16       29.97F
GARRISON         N/A     66  35  31 S18       29.99F
WILLISTON      SUNNY     68  33  27 S15G26    29.90F
DICKINSON      SUNNY     64  36  35 S25G35    29.92F
HETTINGER      SUNNY     63  41  44 SE20G30   29.96F
$$

 *****  OTHER OBSERVATIONS NORTHEAST NORTH DAKOTA  *****

CITY           SKY/WX    TMP DP  RH WIND       PRES   REMARKS
WALHALLA       FAIR      68  28  22 S14G30    30.10F
LANGDON        PTSUNNY   70  30  23 S25       30.10F
CAVALIER       FAIR      68  28  22 S23G30    30.10F
GRAFTON        FAIR      68  30  24 S20G28    30.14S
CANDO          PTSUNNY   66  32  28 S26G33    30.07F
FORT TOTTEN      N/A     66  30  26 S16       29.95
ROLLA          NOT AVBL
RUGBY          NOT AVBL
 ***** THE ABOVE OBSERVATIONS ARE NON NWS ARE NOT QUALITY
        CONTROLLED AND MAY MIS-REPORT RAIN FOR SNOW...
$$

 *****  OTHER OBSERVATIONS SOUTHEAST NORTH DAKOTA *****

CITY           SKY/WX    TMP DP  RH WIND       PRES   REMARKS
COOPERSTOWN    NOT AVBL
VALLEY CITY    FAIR      66  30  26 S18       30.13F
OAKES            N/A     68  32  26 SE17      30.10F
GWINNER        SUNNY     70  32  24 SE16G23   30.13F
SHEYENNE NWR     N/A     69  26  20 SE14      29.95
BUFFALO        NOT AVBL
WYNDMERE       NOT AVBL
 ***** THE ABOVE OBSERVATIONS ARE NON NWS ARE NOT QUALITY
       CONTROLLED AND MAY MIS-REPORT RAIN FOR SNOW...
$$

  *****  WEATHER ACROSS NORTHERN MINNESOTA  *****

CITY           SKY/WX    TMP DP  RH WIND       PRES   REMARKS
FLAG ISLAND    SUNNY     55  34  44 SE9       30.18S
WARROAD        SUNNY     68  34  28 SE14G20   30.17F
ROSEAU         SUNNY     70  25  18 S13G21    30.16F
HALLOCK        SUNNY     70  18  13 S25       30.13F
THF RVR FALLS  SUNNY     68  25  19 SE16G22   30.16F
HALSTAD          N/A     69  25  18 SE21        N/A
FOSSTON        SUNNY     66  19  16 SE12G18   30.17F
BAUDETTE       SUNNY     68  26  20 S12G22    30.19F
WASKISH        SUNNY     68  30  24 SE8G21    30.19F
CROOKSTON      MOSUNNY   70  23  17 S21       30.15F
$$
  *****  WEATHER ACROSS CENTRAL AND WEST MINNESOTA  *****

CITY           SKY/WX    TMP DP  RH WIND       PRES   REMARKS
BEMIDJI        SUNNY     66  24  20 SE15G21   30.19F
PARK RAPIDS    SUNNY     68  19  15 SE18      30.19F
WADENA         SUNNY     66  30  26 SE16      30.18F
DETROIT LAKES  SUNNY     64  23  20 SE18G25   30.17F
MOORHEAD       SUNNY     70  21  16 S15       30.15F
FERGUS FALLS   SUNNY     68  28  22 SE17      30.15F
ELBOW LAKE     FAIR      68  28  22 SE14G23   30.14F
MORRIS MN      SUNNY     72  28  20 SE15G25   30.12F
STAPLES        SUNNY     66  23  19 SE12G17   30.18F
WHEATON        SUNNY     70  30  23 E15G24    30.13F
$$
  *****  WEATHER ELSEWHERE ACROSS MINNESOTA  *****

CITY           SKY/WX    TMP DP  RH WIND       PRES   REMARKS
DULUTH         SUNNY     64  30  27 SE10      30.26F
INTRNTL FALLS  SUNNY     67  25  20 S6G18     30.22S
ELY            SUNNY     64  19  17 S9        30.25F
CLOQUET        SUNNY     64  27  24 E12       30.25S
BRAINERD       SUNNY     63  29  27 SE16G23   30.22S
HIBBING        SUNNY     66  21  18 SE15      30.24F
ALEXANDRIA     SUNNY     68  29  23 E21       30.17F
SAINT CLOUD    SUNNY     65  39  38 E9G20     30.19S
MINNEAPOLIS    MOSUNNY   65  45  48 E17G24    30.20S
$$

  *****  WEATHER ACROSS SOUTH DAKOTA  *****

CITY           SKY/WX    TMP DP  RH WIND       PRES   REMARKS
SIOUX FALLS    PTSUNNY   69  49  48 SE12      30.08S
BROOKINGS      MOSUNNY   70  36  28 E17G24    30.09F
WATERTOWN      SUNNY     67  27  22 E16G22    30.11F
HURON          SUNNY     71  35  26 SE13      30.06F
SISSETON         N/A     67  28  23 SE14      30.12F
ABERDEEN       SUNNY     71  28  20 SE22G29   30.09F
MITCHELL       MOSUNNY   69  36  29 E15       30.07F
PIERRE         PTSUNNY   65  37  35 SE17G25   30.03F
MOBRIDGE       SUNNY     69  35  28 SE22      30.02F
RAPID CITY     PTSUNNY   58  43  57 SE17      29.98S
$$

  *****  SOME WEATHER IN NEARBY STATES *****

CITY           SKY/WX    TMP DP  RH WIND       PRES   REMARKS
GLASGOW MT     SUNNY     62  39  42 SE16      29.80F
GREAT FALLS MT SUNNY     62  36  37 NE3       29.78F
CHEYENNE WY    FOG       45  44  97 S12       29.99S VSB 1/4
SCOTTSBLUFF NE CLOUDY    55  46  71 SE6       29.98F
OMAHA NE       CLOUDY    67  60  78 S7        30.09S
DES MOINES IA  CLOUDY    70  61  73 S10       30.11S
DAVENPORT IA   CLOUDY    60  57  89 NE8       30.19R FOG
CHICAGO IL     FOG       51  50  96 NE7       30.24R VSB 1/2
EAU CLAIRE WI  SUNNY     66  26  22 SE14G21   30.24F
LA CROSSE WI   LGT RAIN  55  50  83 SE9       30.26S
$$

  *****  SOME NATIONAL WEATHER *****

CITY           SKY/WX    TMP DP  RH WIND       PRES   REMARKS
LA GUARDIA NY  PTSUNNY   75  53  46 NE5       30.22R
RALEIGH NC     MOSUNNY   77  58  51 SW12G20   30.34F
ATLANTA GA     SUNNY     75  54  47 VRB7      30.33F
NEW ORLEANS LA MOSUNNY   81  61  50 E13G22    30.18R
OKLAHOMA CITY  PTSUNNY   70  57  64 SE20G31   30.03S
ALBUQUERQUE NM MOSUNNY   57  42  57 SW12      29.96R
SALT LAKE CITY CLOUDY    62  47  57 N7        29.86S
LOS ANGELES CA CLOUDY    60  49  66 SE5       30.00S
BOISE ID       SUNNY     59  35  40 NW14      29.86S
SEATTLE WA     PTSUNNY   50  45  81 SW13      30.04R
$$

*** WEATHER ACROSS MANITOBA...SASKATCHEWAN AND ONTARIO ***
                ***ONTARIO***

CITY           SKY/WX    TMP DP  RH WIND       PRES   REMARKS
GERALDTON      MOSUNNY   57  27  30 NW5       30.28S
THUNDER BAY    SUNNY     63  34  34 NE10      30.28F
SIOUX LOOKOUT  MOSUNNY   64  30  27 W9        30.22F
TORONTO        CLOUDY    59  52  77 E9        30.32R
BIG TROUT LK   SUNNY     43  19  39 W16G23    30.20F
PICKLE LAKE    PTSUNNY   52  28  40 W6        30.23S
DRYDEN         SUNNY     64  28  25 SW13      30.21F
KENORA         SUNNY     63  32  31 SW8       30.20F
$$
                *** MANITOBA***

CITY           SKY/WX    TMP DP  RH WIND       PRES   REMARKS
BRANDON        MOSUNNY   66  32  28 S22G32    30.02F
DAUPHIN        CLOUDY    68  32  26 SW18G24   29.98F
ISLAND LAKE    CLOUDY    43  19  39 SE5       30.20F
PILOT MOUND      N/A     66  28  24 S28         N/A
THE PAS        LGT RAIN  36  34  93 E10G17    30.12F
THOMPSON       MOSUNNY   41  16  36 NW7       30.20S
WINNIPEG       MOSUNNY   70  28  21 S22G30    30.11F
LYNN LAKE      SUNNY     39  16  38 NW9       30.18S
CHURCHILL      MOSUNNY   23  14  68 NW21G28   30.18  WCI   8
GILLAM         MOSUNNY   34  18  51 W12       30.20S
$$
                ***SASKATCHEWAN***

CITY           SKY/WX    TMP DP  RH WIND       PRES   REMARKS
ESTEVAN        MOSUNNY   66  32  28 S22       29.90F
KINDERSLEY     MOSUNNY   63  43  48 SE9       29.70F
LLOYDMINSTER   MOSUNNY   52  37  58 E23G33    29.75F
PRINCE ALBERT  MOSUNNY   52  37  58 E21G30    29.90F
REGINA         PTSUNNY   61  37  41 SE23G30   29.84F


USA.gov is the U.S. government's official web portal to all federal, state and local government web resources and services.